Regional Weather Roundup
Issued by NWS

Home | Current Version | Previous Version | Graphics & Text | Print | Product List | Glossary On
Versions: 1 2 3 4 5 6 7 8 9 10 11 12 13 14 15 16 17 18 19 20 21 22 23 24 25 26 27 28 29 30 31 32 33 34 35 36 37 38 39 40 41 42 43 44 45 46 47 48 49 50
000
ASUS43 KLOT 051200
RWRIL

ILLINOIS REGIONAL WEATHER ROUNDUP
NATIONAL WEATHER SERVICE CHICAGO/ROMEOVILLE IL
700 AM CDT SUN JUL 05 2015

NOTE: "FAIR" INDICATES FEW OR NO CLOUDS BELOW 12,000 FEET WITH NO
SIGNIFICANT WEATHER AND/OR OBSTRUCTIONS TO VISIBILITY.

* THESE STATIONS ARE NOT UNDER NWS QUALITY CONTROL. THEY ALSO MAY NOT
  REPORT WEATHER SUCH AS PRECIPITATION OR FOG.

ILZ001-002-007-009-015-016-024-051300-
NORTHWEST ILLINOIS

CITY           SKY/WX    TMP DP  RH WIND       PRES   REMARKS
MOLINE         SUNNY     65  60  84 E3        30.05S HAZE
6HR MIN TEMP:  61; 6HR MAX TEMP:  66;

STERLING*      SUNNY     61  57  88 E3        30.07S
$$

ILZ003-004-008-010-011-017-018-051300-
NORTH CENTRAL ILLINOIS

CITY           SKY/WX    TMP DP  RH WIND       PRES   REMARKS
ROCKFORD       SUNNY     63  59  87 SE3       30.09R
6HR MIN TEMP:  60; 6HR MAX TEMP:  65;

$$

ILZ005-006-012>014-019>023-051300-
NORTHEAST ILLINOIS

CITY           SKY/WX    TMP DP  RH WIND       PRES   REMARKS
CHICAGO-OHARE  SUNNY     64  60  87 CALM      30.08R FOG
6HR MIN TEMP:  60; 6HR MAX TEMP:  67;

CHICAGO-MIDWAY MOSUNNY   69  61  75 SW3       30.08R HAZE
6HR MIN TEMP:  65; 6HR MAX TEMP:  71;

AURORA         SUNNY     63  59  87 CALM      30.10R FOG
6HR MIN TEMP:  59; 6HR MAX TEMP:  64;

WAUKEGAN       SUNNY     64  59  83 CALM      30.08R HAZE
6HR MIN TEMP:  58; 6HR MAX TEMP:  64;

DUPAGE AIRPORT SUNNY     63  60  90 CALM      30.09R FOG
6HR MIN TEMP:  59; 6HR MAX TEMP:  64;

WHEELING       HAZE      64  59  83 CALM      30.10R VSB 1
6HR MIN TEMP:  59; 6HR MAX TEMP:  65;

NORTHERLY ISL    N/A     70  58  65 SW5         N/A
$$

LMZ740>746-051300-
SOUTHERN LAKE MICHIGAN

STATION/POSITION SKY/WX   TEMP    WIND        PRES    VSBY  WAVE
                          AIR SEA DIR/SP/G                  HT/PER
                          (F)     (DEG/KT/KT) (MB)    (MI)  (FT/S)
HARRISON CRIB              71     200/ 10/ 10   N/A
BURNHAM HARBOR             69     230/  5/  6   N/A
CALUMET HARBOR             67     220/  3/  5   N/A
BURNS HARBOR               66     190/  8/  9 1019.0S
MICHIGAN CITY              67     140/  7/  8   N/A
MICHIGAN CITY 6N           65 64  200/  4/  6   N/A           0
ST. JOSEPH                 65 63                N/A           0
$$

ILZ025>027-034>036-040-047-049-050-058-095>099-051300-
WEST-CENTRAL ILLINOIS

CITY           SKY/WX    TMP DP  RH WIND       PRES   REMARKS
QUINCY         SUNNY     66  62  87 SE5       30.05R FOG
$$

ILZ028>032-037-038-041>044-048-051>054-059>061-051300-
CENTRAL ILLINOIS

CITY           SKY/WX    TMP DP  RH WIND       PRES   REMARKS
DECATUR        SUNNY     62  59  90 CALM      30.08S FOG
PEORIA         SUNNY     67  62  84 CALM      30.07S HAZE
6HR MIN TEMP:  64; 6HR MAX TEMP:  69;

SPRINGFIELD    SUNNY     67  62  84 E3        30.07S
6HR MIN TEMP:  63; 6HR MAX TEMP:  69;

TAYLORVILLE    NOT AVBL
$$

ILZ033-039-045-046-055>057-062-063-051300-
EAST-CENTRAL ILLINOIS

CITY           SKY/WX    TMP DP  RH WIND       PRES   REMARKS
CHAMPAIGN      SUNNY     63  59  87 E3        30.09R
MATTOON        SUNNY     63  61  93 CALM      30.08R FOG
$$

ILZ079-100>102-051300-
SOUTHWEST ILLINOIS

CITY           SKY/WX    TMP DP  RH WIND       PRES   REMARKS
BELLEVILLE     SUNNY     65  65 100 CALM      30.05S FOG
CAHOKIA*       SUNNY     66  63  90 CALM      30.05S
$$

ILZ064>066-069>071-074>076-080>082-084>086-088>090-092>094-051300-
SOUTH-CENTRAL ILLINOIS

CITY           SKY/WX    TMP DP  RH WIND       PRES   REMARKS
CARBONDALE     CLOUDY    66  65  96 CALM      30.07R FOG
6HR MIN TEMP:  65; 6HR MAX TEMP:  69;

MARION         FOG       66  66 100 SE3       30.08R VSB 1
MT. VERNON     MOSUNNY   63  59  88 CALM      30.08S
$$

ILZ067-068-072-073-078-083-087-091-051300-
SOUTHEAST ILLINOIS

CITY           SKY/WX    TMP DP  RH WIND       PRES   REMARKS
LAWRENCEVILLE  PTSUNNY   69  66  90 NE3       30.08S FOG
$$

ABBREVIATIONS USED IN REMARKS
   TC - TEMPERATURE IN CELSIUS
  WCI - WIND CHILL INDEX
   HX - HEAT INDEX
  VSB - VISIBILITY
$$




USA.gov is the U.S. government's official web portal to all federal, state and local government web resources and services.